This is the latest recevied weather packets stored in our database for station/object W0VI. If no packets are shown the sender has not sent any weather packets the latest 10 day(s).
| Time | Temp. | Humidity | Pressure | Rain* | Wind** | Luminosity | Snow |
|---|---|---|---|---|---|---|---|
| 1777414505 | 12.78° C | 40% | 1014.8 hPa | 0 mm | - | 320 W/m² | - |
| 1777414204 | 12.78° C | 39% | 1015 hPa | 0 mm | - | 333 W/m² | - |
| 1777413899 | 13.33° C | 39% | 1014.7 hPa | 0 mm | - | 338 W/m² | - |
| 1777413595 | 13.33° C | 38% | 1014.6 hPa | 0 mm | - | 367 W/m² | - |
| 1777413291 | 13.33° C | 37% | 1014.9 hPa | 0 mm | - | 410 W/m² | - |
| 1777412987 | 13.33° C | 37% | 1014.7 hPa | 0 mm | - | 393 W/m² | - |
| 1777412686 | 13.33° C | 38% | 1014.9 hPa | 0 mm | - | 417 W/m² | - |
| 1777412384 | 13.89° C | 38% | 1015.1 hPa | 0 mm | - | 391 W/m² | - |
| 1777412078 | 13.89° C | 39% | 1015.1 hPa | 0 mm | - | 381 W/m² | - |
| 1777411774 | 13.89° C | 39% | 1015 hPa | 0 mm | - | 413 W/m² | - |
| 1777411473 | 13.89° C | 39% | 1015.1 hPa | 0 mm | - | 422 W/m² | - |
| 1777411172 | 13.33° C | 39% | 1015.3 hPa | 0 mm | - | 452 W/m² | - |
| 1777410868 | 13.33° C | 39% | 1015.1 hPa | 0 mm | - | 514 W/m² | - |
| 1777410568 | 13.33° C | 39% | 1015.1 hPa | 0 mm | - | 425 W/m² | - |
| 1777410267 | 13.33° C | 39% | 1015.2 hPa | 0 mm | - | 523 W/m² | - |
| 1777409962 | 13.33° C | 38% | 1015.2 hPa | 0 mm | - | 507 W/m² | - |
| 1777409657 | 12.78° C | 38% | 1015.4 hPa | 0 mm | - | 522 W/m² | - |
| 1777409353 | 12.22° C | 40% | 1015.2 hPa | 0 mm | - | 439 W/m² | - |
| 1777409049 | 12.78° C | 38% | 1015.4 hPa | 0 mm | - | 537 W/m² | - |
| 1777408746 | 13.33° C | 37% | 1015.4 hPa | 0 mm | - | 498 W/m² | - |
| 1777408441 | 12.78° C | 38% | 1015.4 hPa | 0 mm | - | 499 W/m² | - |
| 1777408137 | 12.78° C | 39% | 1015.3 hPa | 0 mm | - | 446 W/m² | - |
| 1777407832 | 12.78° C | 38% | 1015.4 hPa | 0 mm | - | 534 W/m² | - |
| 1777407529 | 12.78° C | 38% | 1015.3 hPa | 0 mm | - | 468 W/m² | - |
| 1777407229 | 12.78° C | 38% | 1015.5 hPa | 0 mm | - | 476 W/m² | - |
* Rain latest hour (hover to see other rain measurements)
** Current wind speed in m/s (hover to see current wind gust speed)